Location: *
(49.0044°N, 9.5056°E)
Time: 09:26:57
(UTC+00:00)

CZ-2C R/B - Pass Details

Date: 22 September 2019
Orbit: 705 x 907 km, 98.1° (Epoch: 15 October)

Event Time Altitude Azimuth Distance (km) Brightness Sun altitude
Exits shadow 19:55:54 43° 188° (S) 1,150 3.7 -25.0°
Maximum altitude 19:57:39 70° 258° (WSW) 891 3.3 -25.2°
Drops below altitude 10° 20:03:16 10° 342° (NNW) 2,527 6.3 -26.0°
Sets 20:05:45 0° 345° (NNW) 3,493 7.1 -26.3°
